Location: Newark
(6.1731°S, 35.7419°E)
Time: 09:45:39
(UTC+00:00)

Altair - Pass Details

Date: 22 February 2020
Orbit: 1501 x 1682 km, 47.2° (Epoch: 07 April)

Event Time Altitude Azimuth Distance (km) Brightness Sun altitude
Rises 17:26:43 0° 203° (SSW) 4,672 10.6 -22.3°
Reaches altitude 10° 17:30:20 10° 192° (SSW) 3,672 9.8 -23.2°
Maximum altitude 17:38:03 29° 134° (SE) 2,457 8.3 -25.0°
Enters shadow 17:39:17 29° 121° (ESE) 2,495 8.2 -25.3°
